Guaymas, Mexico

1:21 PM MST on February 19, 2018 (GMT -0700)
Gen Jose Ma Yanez International

Weather History for MMGM - September, 2013

Change the Weather History Date:

Monday, September 23, 2013

  Actual Average Record
Temperature  
Mean Temperature 84 °F -  
Max Temperature 95 °F 90 °F 104 °F (2002)
Min Temperature 73 °F 70 °F 64 °F (2004)
Cooling Degree Days 19    
Growing Degree Days 34 (Base 50)    
Moisture  
Dew Point 67 °F    
Average Humidity 51    
Maximum Humidity 79    
Minimum Humidity 27    
Precipitation  
Precipitation 0.00 in - - ()
Sea Level Pressure  
Sea Level Pressure 29.75 in    
Wind  
Wind Speed 3 mph ()    
Max Wind Speed 12 mph    
Max Gust Speed -    
Visibility 10.0 miles    
Events      
Averages and records for this station are not official NWS values.
T = Trace of Precipitation, MM = Missing Value Source: Averaged Metar Reports

Daily Weather History Graph

Daily Weather History Graph

Search for Another Location

Airport or City:

Trip Planner

Search our weather history database for the weather conditions in past years. The results will help you decide how hot, cold, wet, or windy it might be!

Date:

Astronomy

Sep. 23, 2013 Rise Set
Actual Time 6:12 AM MST 6:18 PM MST
Civil Twilight 5:49 AM MST 6:42 PM MST
Nautical Twilight 5:22 AM MST 7:09 PM MST
Astronomical Twilight 4:54 AM MST 7:36 PM MST
Moon 9:17 PM MST (9/23) 10:11 AM MST (9/23)
Length of Visible Light 12h 52m
Length of Day
12h 05m
Waning Gibbous, 80% of the Moon is Illuminated
Sep 23
Waning Gibbous
Sep 26
Last Quarter
Oct 4
New
Oct 11
First Quarter
Oct 18
Full

Hourly Weather History & Observations

Time (MST) Temp. Heat Index Dew Point Humidity Pressure Visibility Wind Dir Wind Speed Gust Speed Precip Events Conditions
2:00 AM 79 °F - 72 °F 73% 29.73 in - West 4.5 mph - -  
5:00 AM 73 °F - 68 °F 79% 29.74 in - WNW 2.2 mph - -  
7:02 AM 73.4 °F - 66.2 °F 78% 29.72 in 10.0 mi Calm Calm - N/A   Clear
7:40 AM 77.0 °F - 69.8 °F 78% 29.73 in 10.0 mi Calm Calm - N/A   Clear
8:00 AM 82 °F - 68 °F 54% 29.80 in - Calm Calm - -  
8:41 AM 82.4 °F 87.2 °F 71.6 °F 70% 29.75 in 10.0 mi Calm Calm - N/A   Clear
9:42 AM 87.8 °F 92.6 °F 69.8 °F 55% 29.76 in 10.0 mi Calm Calm - N/A   Clear
10:49 AM 91.4 °F 92.1 °F 62.6 °F 38% 29.75 in 10.0 mi Calm Calm - N/A   Clear
11:00 AM 93 °F - 71 °F 38% 29.81 in - SSW 4.5 mph - -  
11:41 AM 91.4 °F 98.4 °F 71.6 °F 52% 29.75 in 10.0 mi Calm Calm - N/A   Clear
12:45 PM 91.4 °F 100.1 °F 73.4 °F 55% 29.74 in 10.0 mi Calm Calm - N/A   Clear
1:45 PM 91.4 °F 95.4 °F 68.0 °F 46% 29.73 in 10.0 mi South 11.5 mph - N/A   Clear
2:00 PM 95 °F - 65 °F 27% 29.78 in - SW 8.9 mph - -  
2:41 PM 93.2 °F 97.7 °F 68.0 °F 44% 29.72 in 10.0 mi South 9.2 mph - N/A   Clear
3:46 PM 91.4 °F 94.0 °F 66.2 °F 43% 29.70 in 10.0 mi SSW 11.5 mph - N/A   Partly Cloudy
4:41 PM 91.4 °F 92.1 °F 62.6 °F 38% 29.70 in 10.0 mi SSW 11.5 mph - N/A   Partly Cloudy
5:00 PM 94 °F - 65 °F 29% 29.75 in - WSW 8.9 mph - -  
5:47 PM 91.4 °F 93.2 °F 64.4 °F 41% 29.70 in 10.0 mi SW 11.5 mph - N/A   Clear
6:40 PM 89.6 °F 91.1 °F 64.4 °F 43% 29.72 in 10.0 mi SW 5.8 mph - N/A   Clear
11:00 PM 82 °F - 61 °F 38% 29.83 in - NNW 4.5 mph - -